Regional Weather Roundup
Issued by NWS

Home | Current Version | Previous Version | Graphics & Text | Print | Product List | Glossary On
Versions: 1 2 3 4 5 6 7 8 9 10 11 12 13 14 15 16 17 18 19 20 21 22 23 24 25 26 27 28 29 30 31 32 33 34 35 36 37 38 39 40 41 42 43 44 45 46 47 48 49 50
000
ASUS43 KBIS 280020
RWRND

NORTH DAKOTA REGIONAL WEATHER ROUNDUP
NATIONAL WEATHER SERVICE BISMARCK ND
600 PM CST TUE JAN 27 2015

NOTE: "FAIR" INDICATES FEW OR NO CLOUDS BELOW 12,000 FEET WITH NO
SIGNIFICANT WEATHER AND/OR OBSTRUCTIONS TO VISIBILITY.


NDZ001>003-009>011-017-280100-
NORTHWEST NORTH DAKOTA

CITY           SKY/WX    TMP DP  RH WIND       PRES   REMARKS
WILLISTON      MOCLDY    36  32  85 CALM      29.79S
6HR MIN TEMP:  35; 6HR MAX TEMP:  53;

MINOT          MOCLDY    41  35  79 SW7       29.78S
MINOT AFB      MOCLDY    36  36 100 CALM      29.78S
$$

NDZ018>021-031>035-040>046-280100-
SOUTHWEST NORTH DAKOTA

CITY           SKY/WX    TMP DP  RH WIND       PRES   REMARKS
BISMARCK       MOCLDY    42  32  67 SE6       29.82S
6HR MIN TEMP:  42; 6HR MAX TEMP:  53;

DICKINSON      MOCLDY    48  35  60 W5        29.79F
GARRISON         N/A     41  36  82 CALM      29.79S
6HR MIN TEMP:  38; 6HR MAX TEMP:  49;

HETTINGER ARPT PTCLDY    47  32  56 CALM      29.83F
$$

NDZ004>008-012>016-024-026-027-054-280100-
NORTHEAST NORTH DAKOTA

CITY           SKY/WX    TMP DP  RH WIND       PRES   REMARKS
GRAND FORKS    CLOUDY    32  30  92 S15G24    29.94S
GRND FRKS AFB  CLOUDY    31  29  91 S18       29.93S WCI  19
DEVILS LAKE    MOCLDY    34  30  86 S13       29.82F
$$

NDZ022-023-025-028>030-036>039-047>053-280100-
SOUTHEAST NORTH DAKOTA

CITY           SKY/WX    TMP DP  RH WIND       PRES   REMARKS
FARGO          CLOUDY    33  29  85 SE18G28   29.96F
6HR MIN TEMP:  30; 6HR MAX TEMP:  33;

JAMESTOWN      PTCLDY    34  32  92 SE8       29.86S
$$




USA.gov is the U.S. government's official web portal to all federal, state and local government web resources and services.